Weather Roundup
Issued by NWS Springfield, MO

Home | Current Version | Previous Version | Text Only | Print | Product List | Glossary On
Versions: 1 2 3 4 5 6 7 8 9 10 11 12 13 14 15 16 17 18 19 20 21 22 23 24 25 26 27 28 29 30 31 32 33 34 35 36 37 38 39 40 41 42 43 44 45 46 47 48 49 50
000
NZUS99 KSGF 291507
HRRSGF

HOURLY WEATHER
NATIONAL WEATHER SERVICE SPRINGFIELD MO
1000 AM CDT FRI MAY 29 2015

......SGF CWA......

CITY           SKY/WX    TMP DP  RH WIND       PRES   REMARKS
SPRINGFIELD    RAIN      67  65  93 S5        30.06R FOG
JOPLIN         RAIN      67  65  93 NE6       30.07R FOG
WEST PLAINS    SUNNY     75  66  73 SW10G18   30.08F
ROLLA          CLOUDY    70  64  81 S8        30.05R
OSAGE BEACH    CLOUDY    70  64  83 W9        30.06R
BRANSON        CLOUDY    73  66  78 CALM      30.07S

......SURROUNDING SGF CWA......

CITY           SKY/WX    TMP DP  RH WIND       PRES   REMARKS
CHANUTE        LGT RAIN  68  66  93 SE7       30.01F
PARSONS        LGT RAIN  69  68  96 VRB6      30.03S
COFFEYVILLE    RAIN      69  68  96 S6        30.02R FOG
EMPORIA        LGT RAIN  65  64  97 SE12      30.00S
GROVE OK       CLOUDY    70  70 100 E3        30.03F
ROGERS AR      LGT RAIN  69  67  93 E5        30.06S
SILOAM SPRINGS CLOUDY    70  63  78 E6        30.04F
HARRISON AR    CLOUDY    75  68  78 S8        30.07S
NEAR YELLVILLE MOSUNNY   79  68  69 SW6       30.03F

......KANSAS AND MISSOURI......

CITY           SKY/WX    TMP DP  RH WIND       PRES   REMARKS
KANSAS CTY INT LGT RAIN  66  63  90 SW14G26   29.98R
DOWNTOWN KC    CLOUDY    69  62  78 SW9       29.98R
COLUMBIA       CLOUDY    70  65  84 SW15G24   30.03F
SEDALIA        LGT RAIN  68  65  90 SW12      30.04S
ST JOSEPH      LGT RAIN  67  64  90 SW7       29.98R
ST LOUIS       PTSUNNY   80  66  62 S8        30.05R
SPIRIT OF STL  MOSUNNY   79  69  71 SW8       30.03R
KIRKSVILLE     CLOUDY    70  67  90 VRB7      30.00S
WICHITA        CLOUDY    70  65  84 SE10      29.96S
TOPEKA         CLOUDY    70  64  81 S14G20    29.96S
OLATHE         CLOUDY    68  64  87 S10       30.00R

......TENNESSEE......

CITY           SKY/WX    TMP DP  RH WIND       PRES   REMARKS
MEMPHIS        PTSUNNY   81  70  69 S10       30.10S
NASHVILLE      CLOUDY    73  66  78 S9        30.19S

......ARKANSAS.......

CITY           SKY/WX    TMP DP  RH WIND       PRES   REMARKS
FAYETTEVILLE   CLOUDY    69  67  93 CALM      30.04S
FT SMITH       CLOUDY    71  67  87 E7        29.99S THUNDER
LITTLE ROCK    PTSUNNY   78  69  73 SW5       30.05S

......OKLAHOMA.......

CITY           SKY/WX    TMP DP  RH WIND       PRES   REMARKS
TULSA          LGT RAIN  71  69  93 E7        29.98F
PONCA CITY     CLOUDY    72  64  76 S5        29.96F
MCALESTER      CLOUDY    72  69  90 E6        29.95F
OKLAHOMA CITY  CLOUDY    69  63  81 W7        29.97S

......IOWA............

CITY           SKY/WX    TMP DP  RH WIND       PRES   REMARKS
DES MOINES     CLOUDY    70  63  78 SW8       29.95S
QUAD CITIES    CLOUDY    70  67  90 S6        29.97F

......ILLINOIS........

CITY           SKY/WX    TMP DP  RH WIND       PRES   REMARKS
QUINCY         PTSUNNY   72  66  81 S10       30.00S
CHICAGO        PTSUNNY   77  64  64 S15       30.03F



USA.gov is the U.S. government's official web portal to all federal, state and local government web resources and services.